This is the latest recevied weather packets stored in our database for station/object KC1HBM. If no packets are shown the sender has not sent any weather packets the latest 1 day(s).
| Time | Temp. | Humidity | Pressure | Rain* | Wind** | Luminosity | Snow |
|---|---|---|---|---|---|---|---|
| 1778115564 | 10.56° C | 99% | 1002.8 hPa | 0 mm | - | 0 W/m² | - |
| 1778115261 | 10.56° C | 99% | 1002.7 hPa | 0 mm | - | 0 W/m² | - |
| 1778114958 | 10.56° C | 99% | 1002.8 hPa | 0 mm | - | 0 W/m² | - |
| 1778113743 | 10.56° C | 99% | 1003 hPa | 0 mm | - | 0 W/m² | - |
| 1778113439 | 10.56° C | 99% | 1003 hPa | 0 mm | - | 0 W/m² | - |
| 1778112833 | 10.56° C | 99% | 1003.3 hPa | 0 mm | - | 0 W/m² | - |
| 1778112530 | 10.56° C | 99% | 1002.9 hPa | 0 mm | - | 0 W/m² | - |
| 1778111315 | 10.56° C | 99% | 1003.1 hPa | 0 mm | - | 0 W/m² | - |
| 1778111013 | 10.56° C | 99% | 1003.1 hPa | 0 mm | - | 0 W/m² | - |
| 1778108587 | 10.56° C | 99% | 1003.1 hPa | 0 mm | - | 4 W/m² | - |
| 1778106153 | 11.11° C | 99% | 1003.5 hPa | 1.27 mm | - | 16 W/m² | - |
| 1778105246 | 11.11° C | 99% | 1003.5 hPa | 1.78 mm | - | 16 W/m² | - |
| 1778104030 | 11.11° C | 99% | 1003.8 hPa | 3.05 mm | - | 13 W/m² | - |
| 1778103123 | 11.11° C | 99% | 1003.7 hPa | 1.27 mm | - | 27 W/m² | - |
| 1778101301 | 11.67° C | 99% | 1004 hPa | 1.78 mm | - | 22 W/m² | - |
| 1778099786 | 12.22° C | 98% | 1003.9 hPa | 0 mm | - | 21 W/m² | - |
| 1778098876 | 12.22° C | 98% | 1004 hPa | 0 mm | - | 15 W/m² | - |
| 1778098270 | 12.78° C | 98% | 1004.1 hPa | 0 mm | - | 22 W/m² | - |
| 1778096148 | 12.78° C | 97% | 1004.6 hPa | 3.05 mm | - | 34 W/m² | - |
| 1778095845 | 12.78° C | 96% | 1005 hPa | 1.27 mm | - | 32 W/m² | - |
| 1778093722 | 12.22° C | 93% | 1004.9 hPa | 0 mm | - | 17 W/m² | - |
| 1778092813 | 12.22° C | 91% | 1004.4 hPa | 0 mm | - | 22 W/m² | - |
| 1778090691 | 12.78° C | 89% | 1004.7 hPa | 0 mm | - | 32 W/m² | - |
| 1778090084 | 12.78° C | 89% | 1004.6 hPa | 0 mm | - | 40 W/m² | - |
| 1778089175 | 12.78° C | 89% | 1004.7 hPa | 0 mm | - | 86 W/m² | - |
* Rain latest hour (hover to see other rain measurements)
** Current wind speed in m/s (hover to see current wind gust speed)